Location: 5810 Zion Rd, Cleves, OH 45002, USA
(39.1922°N, 84.7113°W)
Time: 21:02:28
(UTC-05:00)

DX 1 - Visible Passes

Search period start: 21 January 2020 00:00
Search period end: 31 January 2020 00:00
Orbit: 620 x 630 km, 98.4° (Epoch: 21 January)

Date Brightness Start Highest point End Pass type
(mag) Time Alt. Az. Time Alt. Az. Time Alt. Az.
23 Jan ? 18:26:55 10° N 18:30:51 34° WNW 18:34:46 10° SW visible
24 Jan ? 18:46:10 10° NNW 18:49:31 22° WNW 18:52:52 10° WSW visible
25 Jan ? 19:05:48 10° NNW 19:08:09 14° WNW 19:10:29 10° W visible
28 Jan ? 18:24:46 10° N 18:28:47 36° WNW 18:32:46 10° SW visible
29 Jan ? 18:43:59 10° NNW 18:47:28 24° WNW 18:50:55 10° WSW visible
30 Jan ? 19:03:31 10° NNW 19:06:05 16° WNW 19:08:39 10° W visible
